Weather History for Westhampton Beach, NY

Change the Weather History Date:

Tuesday, January 22, 2013

  Actual Average Record
Temperature  
Mean Temperature 21 °F -  
Max Temperature 27 °F 33 °F 48 °F (1997)
Min Temperature 14 °F 17 °F -6 °F (2005)
Degree Days  
Heating Degree Days 44    
Moisture  
Dew Point 5 °F    
Average Humidity 54    
Maximum Humidity 85    
Minimum Humidity 37    
Precipitation  
Precipitation 0.00 in - - ()
Sea Level Pressure  
Sea Level Pressure 29.99 in    
Wind  
Wind Speed 11 mph (WNW)    
Max Wind Speed 21 mph    
Max Gust Speed 33 mph    
Visibility 10 miles    
Events      
Averages and records for this station are not official NWS values.
T = Trace of Precipitation, MM = Missing Value Source: NWS Daily Summary

Daily Weather History Graph

Daily Weather History Graph

Search for Another Location

Airport:

Trip Planner

Search our weather history database for the weather conditions in past years. The results will help you decide how hot, cold, wet, or windy it might be!

Date:

Astronomy

Jan. 22, 2013 Rise Set
Actual Time 7:08 AM EST 4:55 PM EST
Civil Twilight 6:39 AM EST 5:25 PM EST
Nautical Twilight 6:05 AM EST 5:59 PM EST
Astronomical Twilight 5:33 AM EST 6:31 PM EST
Moon 1:16 PM EST (1/22) 3:28 AM EST (1/22)
Length of Visible Light 10h 46m
Length of Day
9h 47m
Waxing Gibbous, 82% of the Moon is Illuminated
Jan 22
Waxing Gibbous
Jan 26
Full
Feb 3
Last Quarter
Feb 10
New
Feb 17
First Quarter

Hourly Weather History & Observations

Time (EST) Temp. Windchill Dew Point Humidity Pressure Visibility Wind Dir Wind Speed Gust Speed Precip Events Conditions
12:53 AM 27.0 °F 21.6 °F 23.0 °F 85% 29.82 in 10.0 mi West 4.6 mph - 0.00 in   Overcast
1:53 AM 21.9 °F 14.5 °F 18.0 °F 85% 29.82 in 10.0 mi West 5.8 mph - N/A   Partly Cloudy
2:53 AM 19.9 °F 11.1 °F 14.0 °F 78% 29.83 in 10.0 mi West 6.9 mph - N/A   Clear
3:53 AM 19.0 °F 9.0 °F 10.9 °F 71% 29.84 in 10.0 mi West 8.1 mph - N/A   Clear
4:53 AM 17.1 °F 5.8 °F 10.0 °F 74% 29.86 in 10.0 mi West 9.2 mph - N/A   Clear
5:53 AM 19.9 °F 10.1 °F 12.0 °F 71% 29.90 in 10.0 mi West 8.1 mph - N/A   Overcast
6:53 AM 21.9 °F 8.7 °F 12.0 °F 66% 29.92 in 10.0 mi NW 15.0 mph - N/A   Overcast
7:53 AM 21.0 °F 8.1 °F 10.0 °F 63% 29.95 in 8.0 mi NW 13.8 mph 21.9 mph N/A   Overcast
8:53 AM 21.0 °F 9.3 °F 10.0 °F 63% 29.98 in 10.0 mi WNW 11.5 mph - N/A   Overcast
9:53 AM 21.9 °F 7.3 °F 5.0 °F 48% 29.99 in 10.0 mi NW 18.4 mph 26.5 mph N/A   Clear
10:53 AM 21.9 °F 7.3 °F 5.0 °F 48% 30.00 in 10.0 mi WNW 18.4 mph 26.5 mph N/A   Partly Cloudy
11:53 AM 21.9 °F 6.9 °F 3.9 °F 46% 29.99 in 8.0 mi West 19.6 mph 33.4 mph N/A   Partly Cloudy
12:53 PM 23.0 °F 9.6 °F 3.9 °F 44% 29.97 in 10.0 mi West 16.1 mph 28.8 mph N/A   Mostly Cloudy
1:53 PM 23.0 °F 8.3 °F 3.9 °F 44% 29.97 in 10.0 mi WNW 19.6 mph 25.3 mph N/A   Overcast
2:53 PM 21.0 °F 5.4 °F 1.9 °F 44% 29.99 in 10.0 mi West 20.7 mph 31.1 mph N/A   Mostly Cloudy
3:53 PM 21.0 °F 6.2 °F 1.0 °F 42% 30.01 in 10.0 mi WNW 18.4 mph 25.3 mph N/A   Mostly Cloudy
4:53 PM 19.9 °F 5.2 °F -0.9 °F 40% 30.04 in 10.0 mi WNW 17.3 mph 23.0 mph N/A   Scattered Clouds
5:53 PM 18.0 °F 4.8 °F -2.0 °F 41% 30.08 in 10.0 mi West 12.7 mph - N/A   Mostly Cloudy
6:53 PM 17.1 °F 4.3 °F -2.9 °F 41% 30.10 in 10.0 mi WNW 11.5 mph 19.6 mph N/A   Clear
7:53 PM 15.1 °F 4.2 °F -2.9 °F 45% 30.12 in 10.0 mi West 8.1 mph - N/A   Clear
8:53 PM 16.0 °F 2.3 °F -4.0 °F 41% 30.14 in 10.0 mi WNW 12.7 mph 21.9 mph N/A   Partly Cloudy
9:53 PM 15.1 °F 4.2 °F -7.1 °F 37% 30.15 in 10.0 mi West 8.1 mph - N/A   Clear
10:53 PM 15.1 °F -1.6 °F -5.1 °F 41% 30.17 in 10.0 mi WNW 18.4 mph 28.8 mph N/A   Mostly Cloudy
11:53 PM 14.0 °F -0.2 °F -6.0 °F 41% 30.17 in 10.0 mi West 12.7 mph - N/A   Partly Cloudy